[[{"header":{"parameterUnit":"m.s-1","parameterCategory":1,"la1":30.2991,"la2":30.254,"lo1":-89.0895,"lo2":-89.0444,"dy":0.0017,"dx":0.0017,"nx":28,"ny":28,"refTime":"2023-08-10T09:00:00:Z","depth":0,"parameterNumber":2,"parameterNumberName":"U-component_of_WINDS"},"data":[0,0,0,0,0,0,0,0,0,0,0,0,0,0,0,0,0,0,0,0,0,0,0,0,0,0,0,0,0,0,0,0,0,0,0,0,0,0,0,0,0,0,0,0,0,0,0,0,0,0,0,0,0,0,0,0,0,0,4.9299,4.93,0,4.9361,4.9362,4.9363,4.9345,4.9344,4.9342,4.9341,4.9404,4.9407,4.941,0,0,0,0,0,0,0,0,0,0,0,0,0,4.9164,4.9167,4.9299,4.93,4.9301,4.9361,4.9362,4.9363,4.9345,4.9344,4.9342,4.9341,4.9403,4.9407,4.941,0,0,0,0,0,0,0,0,0,0,0,0,0,4.9224,4.9168,4.9299,4.9299,4.93,4.9361,4.9362,4.9363,4.9345,4.9344,4.9342,4.934,4.9402,4.9406,4.9411,4.9475,0,0,4.9424,4.9426,0,0,0,0,0,0,0,0,4.9221,4.9229,4.9298,4.9299,4.93,4.9343,4.9338,4.9401,4.9346,4.9328,4.9341,4.9339,4.9386,4.9391,4.9407,4.9478,4.9481,4.9424,4.9427,4.9429,4.943,0,0,0,0,0,0,0,4.9217,4.9226,4.9324,4.9299,4.93,4.9296,4.9302,4.9349,4.9367,4.9329,4.9328,4.9336,4.9386,4.9403,4.9408,4.9482,4.9424,4.9428,4.9431,4.9432,4.9608,4.961,0,0,0,0,0,0,4.9212,4.9223,4.9322,4.9325,4.9255,4.93,4.9307,4.9331,4.9366,4.937,4.9338,4.9335,4.9396,4.9403,4.941,4.9487,4.9429,4.9433,4.9435,4.9606,4.9608,4.9611,0,0,0,0,0,0,4.9209,4.9221,4.9319,4.9274,4.9286,4.9304,4.9332,4.9334,4.9351,4.9372,4.9375,4.9352,4.9395,4.9404,4.9459,4.9489,4.9435,4.9439,4.9603,4.9607,4.961,4.9642,0,0,0,0,0,0,4.9205,4.922,4.9245,4.9275,4.9289,4.9367,4.9334,4.9336,4.9358,4.9355,4.9387,4.939,4.9394,4.9453,4.9463,4.9494,4.9442,4.9601,4.9605,4.9609,4.9638,4.9645,4.9652,0,0,0,0,0,4.9201,4.9252,4.9246,4.9258,4.932,4.9369,4.9377,4.9381,4.9361,4.9386,4.9399,4.9389,4.9484,4.9458,4.947,4.9503,4.9599,4.9604,4.9608,4.9635,4.9644,4.9652,0,0,0,0,0,0,4.9225,4.9256,4.925,4.9312,4.9338,4.9366,4.9397,4.9391,4.9423,4.9419,4.9423,4.943,4.9485,4.95,4.947,4.9566,4.9539,4.9546,4.9555,4.9564,4.957,4.9565,4.9445,0,0,0,0,0,4.9238,4.9275,4.93,4.9352,4.9366,4.9379,4.9401,4.9402,4.9428,4.9439,4.9457,4.9483,4.9519,4.9542,4.9577,4.964,4.9646,4.9668,4.9675,4.9681,4.9687,4.972,4.973,4.9626,4.9626,4.9626,0,0,4.9264,4.9286,4.9309,4.9358,4.9378,4.9415,4.9388,4.943,4.9458,4.9445,4.9497,4.9512,4.9541,4.96,4.9627,4.9614,4.9717,4.9687,4.9691,4.9694,4.9726,4.9736,4.9744,4.9629,4.9629,4.9628,0,0,4.9331,4.9352,4.9397,4.9418,4.9449,4.9457,4.9468,4.9497,4.9506,4.9558,4.9549,4.9583,4.9645,4.9665,4.9684,4.9759,4.975,4.977,4.9806,4.9838,4.9847,4.9854,4.9879,4.9888,4.9776,4.9776,4.9776,0,4.936,4.9417,4.9421,4.9463,4.9484,4.9475,4.9521,4.9541,4.9581,4.9595,4.958,4.9657,4.9676,4.9739,4.9757,4.9774,4.9785,4.9766,4.9845,4.9852,4.9859,4.9883,4.9893,4.9778,4.9778,4.9778,4.9778,0,4.945,4.949,4.9523,4.9561,4.9586,4.963,4.964,4.9665,4.9664,4.9675,4.9728,4.9751,4.9789,4.9804,4.9804,4.9867,4.9858,4.9844,4.9816,4.9871,4.9893,4.9903,4.9781,4.9781,4.978,4.978,0,0,4.9533,4.9574,4.9586,4.9603,4.9636,4.9666,4.9709,4.9746,4.9767,4.9795,4.983,4.9883,4.987,4.9891,4.9894,4.9922,4.9978,4.9905,4.9906,4.9916,5.0047,5.0056,5.0067,4.9973,4.9975,4.9976,5.0044,0,4.9602,4.9677,4.9682,4.975,4.9786,4.9778,4.9815,4.9839,4.985,4.9881,4.9893,4.993,4.9911,4.9924,4.9952,4.9965,5.0004,4.9961,5.0004,5.0006,4.9995,5.0079,5.0088,5.0151,5.0053,5.0055,5.0056,0,4.9692,4.9722,4.9793,4.9821,4.9836,4.9869,4.9903,4.9934,4.9961,4.9967,4.999,4.9988,5.0031,5.0003,5.0062,5.0032,5.0051,5.006,5.0063,5.0065,5.0033,5.0082,5.0172,5.018,5.007,5.0069,5.0068,0,4.9743,4.9802,4.9852,4.9867,4.9901,4.9924,4.9939,4.9964,4.9986,5.0016,5.0029,5.0064,5.0083,5.011,5.0116,5.0095,5.0175,5.0147,5.018,5.018,5.0195,5.0194,5.0287,5.0211,5.021,5.021,5.021,0,4.9818,4.9861,4.9875,4.9906,4.9954,4.996,5.0007,5.0021,5.0043,5.0075,5.0071,5.0102,5.011,5.0142,5.0148,5.0195,5.0204,5.0209,5.021,5.0209,5.0208,5.0219,5.0214,5.0213,5.0212,5.0212,5.0211,0,4.9882,4.9894,4.9947,4.9975,4.9983,5.0017,5.004,5.0069,5.0079,5.012,5.013,5.0147,5.0184,5.0194,5.0239,5.0243,5.0298,5.0295,5.0288,5.0288,5.0319,5.0315,5.0421,5.0435,5.0351,5.0352,5.0352,0,4.9929,4.9962,4.9993,5.0014,5.003,5.0065,5.0087,5.0094,5.0117,5.015,5.0174,5.0211,5.0241,5.0301,5.0316,5.035,5.0347,5.0383,5.0352,5.035,5.0346,5.0343,5.0345,5.0388,5.0388,5.0389,5.039,0,5.0008,5.0012,5.0044,5.0078,5.0105,5.0132,5.0158,5.0176,5.0186,5.0212,5.025,5.0273,5.0319,5.0355,5.0389,5.0404,5.0398,5.0399,5.0408,5.0406,5.04,5.0402,5.0302,5.0396,5.0396,5.0395,5.0395,5.0395,5.0064,5.0093,5.0118,5.0154,5.0174,5.0199,5.0227,5.0241,5.0272,5.031,5.0312,5.0353,5.0379,5.0424,5.0441,5.0473,5.0462,5.0475,5.0478,5.0481,5.0483,5.0397,5.0479,5.0479,5.0479,5.0479,5.0479,0,5.0142,5.0158,5.0191,5.0227,5.0255,5.0248,5.0276,5.03,5.0336,5.036,5.0389,5.0433,5.0467,5.0486,5.052,5.0542,5.054,5.0551,5.0548,5.0551,5.0491,5.0479,5.0552,5.0552,5.0551,5.0551,5.0551,5.0551,5.0186,5.0233,5.024,5.0297,5.0313,5.0353,5.037,5.0392,5.0411,5.0459,5.0488,5.05,5.0522,5.0558,5.0589,5.0594,5.0606,5.0617,5.062,5.0563,5.0556,5.0549,5.0537,5.0621,5.0621,5.0677,5.0678,5.0678]},{"header":{"parameterUnit":"m.s-1","parameterCategory":1,"la1":30.2991,"la2":30.254,"lo1":-89.0895,"lo2":-89.0444,"dy":0.0017,"dx":0.0017,"nx":28,"ny":28,"refTime":"2023-08-10T09:00:00:Z","depth":0,"parameterNumber":3,"parameterNumberName":"V-component_of_WINDS"},"data":[0,0,0,0,0,0,0,0,0,0,0,0,0,0,0,0,0,0,0,0,0,0,0,0,0,0,0,0,0,0,0,0,0,0,0,0,0,0,0,0,0,0,0,0,0,0,0,0,0,0,0,0,0,0,0,0,0,0,3.4388,3.4388,0,3.4361,3.4361,3.436,3.4343,3.4343,3.4343,3.4343,3.4313,3.4312,3.4311,0,0,0,0,0,0,0,0,0,0,0,0,0,3.4422,3.4422,3.4388,3.4388,3.4387,3.4361,3.4361,3.436,3.4343,3.4343,3.4343,3.4343,3.4313,3.4312,3.4311,0,0,0,0,0,0,0,0,0,0,0,0,0,3.4402,3.4422,3.4388,3.4376,3.4374,3.4361,3.4361,3.436,3.4343,3.4343,3.4343,3.4343,3.4313,3.4312,3.4311,3.4307,0,0,3.4308,3.4307,0,0,0,0,0,0,0,0,3.4404,3.4401,3.4378,3.4377,3.4375,3.4355,3.4362,3.4342,3.4343,3.4355,3.4343,3.4343,3.4327,3.4325,3.432,3.4306,3.4304,3.4308,3.4307,3.4306,3.4306,0,0,0,0,0,0,0,3.4405,3.4402,3.4377,3.4378,3.4376,3.4371,3.4368,3.4358,3.4342,3.4354,3.4353,3.435,3.4326,3.4321,3.4319,3.4304,3.4308,3.4307,3.4306,3.4306,3.4284,3.4284,0,0,0,0,0,0,3.4409,3.4404,3.4378,3.4376,3.4389,3.437,3.4367,3.4362,3.4342,3.4339,3.435,3.4349,3.4323,3.432,3.4318,3.4311,3.4306,3.4305,3.4305,3.4284,3.4284,3.4284,0,0,0,0,0,0,3.441,3.4407,3.4379,3.439,3.4386,3.437,3.4364,3.4361,3.4356,3.4339,3.4336,3.4348,3.4322,3.4319,3.431,3.431,3.4305,3.4304,3.4284,3.4284,3.4284,3.4298,0,0,0,0,0,0,3.4411,3.4407,3.4406,3.439,3.4385,3.4373,3.4364,3.4361,3.4355,3.4353,3.4336,3.4333,3.4322,3.4311,3.4309,3.4308,3.4303,3.4284,3.4284,3.4284,3.4298,3.4299,3.43,0,0,0,0,0,3.4412,3.4411,3.4406,3.4403,3.4384,3.4373,3.437,3.4358,3.4355,3.4353,3.4342,3.4334,3.431,3.4311,3.4307,3.4307,3.4284,3.4284,3.4284,3.4297,3.4299,3.43,0,0,0,0,0,0,3.4427,3.4408,3.4403,3.4397,3.4387,3.437,3.4368,3.436,3.435,3.4349,3.4334,3.433,3.4322,3.4313,3.4314,3.4301,3.4296,3.4295,3.4307,3.4308,3.4309,3.4312,3.4302,0,0,0,0,0,3.443,3.4423,3.4407,3.4403,3.4398,3.4384,3.4378,3.437,3.4359,3.4354,3.4342,3.433,3.432,3.4314,3.4304,3.4296,3.4292,3.4294,3.4295,3.4296,3.4296,3.429,3.4291,3.4285,3.4285,3.4285,0,0,3.4435,3.4424,3.4421,3.4406,3.4397,3.4389,3.438,3.4373,3.4367,3.4352,3.4343,3.4334,3.4319,3.4311,3.4307,3.4303,3.4297,3.4296,3.4297,3.4296,3.4291,3.4291,3.4292,3.4285,3.4285,3.4285,0,0,3.444,3.4432,3.4428,3.4419,3.4406,3.4396,3.4395,3.4379,3.4373,3.4363,3.4352,3.4344,3.4327,3.4317,3.431,3.4312,3.4303,3.4309,3.4314,3.4309,3.431,3.431,3.431,3.431,3.4308,3.4308,3.4308,0,3.4448,3.4438,3.4426,3.4419,3.4412,3.44,3.4395,3.4386,3.437,3.4365,3.4362,3.4341,3.433,3.4319,3.4319,3.4314,3.4311,3.4311,3.4311,3.4311,3.4311,3.4311,3.4311,3.4309,3.4309,3.4309,3.4309,0,3.4448,3.444,3.4438,3.4424,3.4417,3.4411,3.4397,3.4391,3.4383,3.4374,3.4364,3.4351,3.4337,3.4334,3.4326,3.4321,3.4319,3.4314,3.4308,3.4313,3.4312,3.4312,3.431,3.431,3.431,3.431,0,0,3.4462,3.4441,3.444,3.4433,3.4418,3.4411,3.4404,3.4392,3.4387,3.4376,3.4369,3.4355,3.4349,3.4341,3.4332,3.4328,3.4329,3.4322,3.4322,3.4323,3.4321,3.4326,3.4326,3.4323,3.4323,3.4323,3.4322,0,3.4465,3.4453,3.4442,3.4433,3.4426,3.4413,3.4407,3.4396,3.4387,3.4378,3.4367,3.4358,3.4351,3.4346,3.4341,3.433,3.4328,3.4329,3.4315,3.4315,3.4319,3.4325,3.433,3.433,3.4322,3.4322,3.4322,0,3.4467,3.4457,3.4448,3.4433,3.4429,3.4424,3.4411,3.4404,3.4391,3.4384,3.4375,3.4365,3.4356,3.4351,3.4338,3.4339,3.4333,3.4326,3.4325,3.4323,3.4319,3.4323,3.433,3.433,3.4322,3.4322,3.4322,0,3.4478,3.4462,3.4455,3.4449,3.4431,3.4428,3.442,3.4407,3.44,3.4389,3.4384,3.4371,3.4364,3.4354,3.4341,3.4339,3.4328,3.4323,3.4322,3.4322,3.432,3.432,3.4325,3.4316,3.4316,3.4316,3.4316,0,3.4482,3.4476,3.4459,3.4455,3.4448,3.4435,3.4428,3.4419,3.4408,3.44,3.4388,3.4381,3.4364,3.4355,3.4344,3.4334,3.4331,3.4325,3.4322,3.4326,3.4326,3.4321,3.432,3.4316,3.4316,3.4316,3.4316,0,3.4492,3.4481,3.4472,3.4456,3.4451,3.4447,3.4433,3.4427,3.4417,3.4408,3.4405,3.4389,3.4377,3.4363,3.4346,3.4339,3.433,3.4326,3.4334,3.4333,3.4332,3.4332,3.4334,3.4333,3.4325,3.4325,3.4325,0,3.4496,3.4492,3.4475,3.447,3.4463,3.4454,3.4447,3.4434,3.4427,3.4411,3.4407,3.4395,3.4384,3.4366,3.4352,3.4339,3.4334,3.4335,3.4332,3.4336,3.4333,3.4334,3.4333,3.4336,3.4337,3.4337,3.4337,0,3.4503,3.4497,3.4488,3.4477,3.447,3.446,3.445,3.4446,3.443,3.4423,3.4411,3.4403,3.4386,3.4373,3.4358,3.4349,3.434,3.4338,3.4337,3.4341,3.4346,3.4342,3.4336,3.4338,3.4338,3.4338,3.4338,3.4338,3.4509,3.4505,3.4493,3.4483,3.4474,3.4465,3.4459,3.4448,3.4439,3.4425,3.4417,3.4405,3.4391,3.4371,3.4361,3.4351,3.4348,3.4347,3.4346,3.4346,3.4347,3.4348,3.4348,3.4348,3.4348,3.4348,3.4348,0,3.4515,3.4507,3.4498,3.4485,3.4477,3.447,3.4458,3.4452,3.4442,3.443,3.442,3.4406,3.4394,3.4379,3.4365,3.436,3.4355,3.4356,3.4357,3.4354,3.4351,3.4353,3.436,3.436,3.436,3.436,3.436,3.436,3.4517,3.4509,3.4502,3.4489,3.448,3.447,3.4463,3.4454,3.4445,3.443,3.442,3.4411,3.4398,3.4383,3.4371,3.4367,3.4362,3.4364,3.4359,3.4356,3.4355,3.4354,3.4356,3.4364,3.4364,3.4363,3.4363,3.4363]}]]